[ hide orbit diagram ]
For accurate long-term ephemerides, please instead use our Horizons system.This orbit viewer was implemented using two-body methods, and hence should not be used for determining accurate long-term trajectories (over several years or decades) or planetary encounter circumstances.
Orbital Elements at Epoch 2459000.5 (2020-May-31.0) TDB
Reference: JPL 30 (heliocentric ecliptic J2000)
Element | Value | Uncertainty (1-sigma) | Units |
e | .229720539209268 | 5.2466e-08 | |
a | 3.050541554987572 | 1.8957e-08 | au |
q | 2.349769504095548 | 1.6826e-07 | au |
i | 15.9097330163714 | 3.8317e-06 | deg |
node | 214.363737211221 | 1.5552e-05 | deg |
peri | 156.01207610314 | 1.847e-05 | deg |
M | 308.7510850351512 | 8.8628e-06 | deg |
tp | 2459277.542258627113 (2021-Mar-04.04225863) | 4.8662e-05 | TDB |
period | 1946.094140220691 5.33 | 1.814e-05 4.966e-08 | d yr |
n | .1849859123254825 | 1.7243e-09 | deg/d |
Q | 3.751313605879596 | 2.3312e-08 | au |
|
| | Orbit Determination Parameters
Additional Information
|
[ show covariance matrix ]
Physical Parameter Table
Parameter |
Symbol |
Value |
Units |
Sigma |
Reference |
Notes |
absolute magnitude |
H |
14.2 |
|
n/a |
MPO432403 |
|
diameter |
diameter |
8.225 |
km |
0.129 |
urn:nasa:pds:neowise_diameters_albedos::2.0[mainbelt] (http://adsabs.harvard.edu/abs/2012ApJ...759L...8M) |
|
geometric albedo |
albedo |
0.053 |
|
0.004 |
urn:nasa:pds:neowise_diameters_albedos::2.0[mainbelt] (http://adsabs.harvard.edu/abs/2012ApJ...759L...8M) |
|
|
86096 (1999 RB103) Discovered 1999-Sep-08 by LINEAR at Socorro |
Reference: 20040830/Numbers.arc | Last Updated: 2004-09-06 |
|
[ hide close-approach data ]
Close-Approach Data ...sorted by Date/Time (TDB)
|
Date/Time (TDB) |
Time Uncertainty (days_HH:MM) |
Body |
Nominal Distance (au) |
Minimum Distance (au) |
Maximum Distance (au) |
V-relative (km/s) |
V-infinity (km/s) |
JD (TDB) |
Time Uncertainty (minutes) |
Semi-major axis (km) |
Semi-minor axis (km) |
range-LOV angle (deg) |
N-sigma |
BP |
Orbit Ref. |
Reference |
Modified |
1923-Jun-19 16:38 |
00:02 |
Jupiter |
1.89578676594832 |
1.89578544806538 |
1.89578808384419 |
4.14737692095353 |
4.03821138139841 |
2423590.192971776 |
2.45652048911476 |
290.188145160476 |
29.9928248366613 |
-78.4682557916484 |
3788331.85279846 |
T |
30 |
CATAB v2.0f-lin.ifort 2020-Dec-18 04:17:47 |
2020-Dec-18 04:17 |
1981-May-15 04:15 |
< 00:01 |
Jupiter |
1.82692339973438 |
1.82692265865285 |
1.82692414081685 |
3.61590679534795 |
3.48532858742752 |
2444739.677270191 |
0.941654963018415 |
123.126213067853 |
30.7414469392182 |
79.671663883416 |
3252059.28185879 |
T |
30 |
CATAB v2.0f-lin.ifort 2020-Dec-18 04:17:47 |
2020-Dec-18 04:17 |
2029-Jul-27 03:57 |
< 00:01 |
Jupiter |
1.75885781419768 |
1.75885728214737 |
1.75885834624829 |
3.98597750692122 |
3.86327141739076 |
2462344.664714393 |
0.47101878672991 |
99.7219914128496 |
23.0898313743615 |
-84.6709726247403 |
3572577.92333878 |
T |
30 |
CATAB v2.0f-lin.ifort 2020-Dec-18 04:17:47 |
2020-Dec-18 04:17 |
2077-Oct-08 17:03 |
00:02 |
Jupiter |
1.90793462794193 |
1.90793332082949 |
1.90793593505741 |
4.11028326441921 |
4.00081664417461 |
2479950.210728129 |
1.76218395546831 |
166.089240036451 |
38.8018135789019 |
-71.7669052148548 |
3386500.62545893 |
T |
30 |
CATAB v2.0f-lin.ifort 2020-Dec-18 04:17:47 |
2020-Dec-18 04:17 |
2135-Sep-07 22:31 |
00:03 |
Jupiter |
1.80505148592276 |
1.80505031296788 |
1.80505265891807 |
3.76267488272946 |
3.63582451991671 |
2501102.438485152 |
3.26050827248487 |
480.768680582817 |
23.8117223971614 |
82.8736153210658 |
3475412.71263232 |
T |
30 |
CATAB v2.0f-lin.ifort 2020-Dec-18 04:17:47 |
2020-Dec-18 04:17 |
2183-Nov-15 18:48 |
00:04 |
Jupiter |
1.75756338519985 |
1.75756227499406 |
1.75756449548977 |
4.02449851971183 |
3.90291280231426 |
2518703.283550508 |
4.36777674801561 |
683.711785345357 |
22.4741477665733 |
-86.0595503371245 |
3683551.54789032 |
T |
30 |
CATAB v2.0f-lin.ifort 2020-Dec-18 04:17:47 |
2020-Dec-18 04:17 |
|
|